• In Romania
  • List of Countries
  • For 7 days
  • Water Temperature
  • Satellite Maps
  • Weather Map
  • Weather Widgets
  • user-avatar
    Login

    Hourly Weather Novki

    Today, 23 September, Sunday

    Time Temperature Precipitation Wind Pressure Humidity
    00:00 +9°C° 0.4 mm 3 mps 743 mmHg 94%
    01:00 +9°C° 0.4 mm 3 mps 743 mmHg 94%
    02:00 +9°C° 0 mm 2 mps 743 mmHg 95%
    03:00 +9°C° 0.1 mm 3 mps 743 mmHg 95%
    04:00 +8°C° 0.1 mm 3 mps 742 mmHg 96%
    05:00 +8°C° 0.1 mm 3 mps 742 mmHg 96%
    06:00 +8°C° 0 mm 3 mps 742 mmHg 94%
    07:00 +9°C° 0 mm 3 mps 742 mmHg 92%
    08:00 +9°C° 0 mm 3 mps 742 mmHg 89%
    09:00 +10°C° 0 mm 4 mps 742 mmHg 81%
    10:00 +12°C° 0 mm 4 mps 742 mmHg 73%
    11:00 +13°C° 0 mm 5 mps 742 mmHg 65%
    12:00 +13°C° 0.1 mm 5 mps 742 mmHg 64%
    13:00 +14°C° 0.1 mm 5 mps 742 mmHg 63%
    14:00 +14°C° 0.1 mm 5 mps 741 mmHg 62%
    15:00 +13°C° 0.2 mm 4 mps 741 mmHg 68%
    16:00 +12°C° 0.2 mm 3 mps 741 mmHg 73%
    17:00 +11°C° 0.2 mm 3 mps 741 mmHg 79%
    18:00 +10°C° 0.1 mm 2 mps 741 mmHg 83%
    19:00 +9°C° 0.1 mm 2 mps 741 mmHg 87%
    20:00 +8°C° 0.1 mm 2 mps 741 mmHg 91%
    21:00 +8°C° 0 mm 2 mps 741 mmHg 91%
    22:00 +7°C° 0 mm 3 mps 741 mmHg 91%
    23:00 +7°C° 0 mm 3 mps 741 mmHg 92%

    Tomorrow, 24 September, Monday

    Time Temperature Precipitation Wind Pressure Humidity
    00:00 +7°C° 0 mm 2 mps 741 mmHg 93%
    01:00 +7°C° 0 mm 2 mps 741 mmHg 94%
    02:00 +6°C° 0 mm 2 mps 741 mmHg 96%
    03:00 +7°C° 0 mm 2 mps 740 mmHg 96%
    04:00 +7°C° 0 mm 2 mps 740 mmHg 97%
    05:00 +7°C° 0 mm 2 mps 740 mmHg 97%
    06:00 +7°C° 0.3 mm 2 mps 739 mmHg 96%
    07:00 +8°C° 0.3 mm 2 mps 739 mmHg 95%
    08:00 +8°C° 0.3 mm 2 mps 739 mmHg 95%
    09:00 +8°C° 1.2 mm 2 mps 738 mmHg 94%
    10:00 +9°C° 1.2 mm 2 mps 738 mmHg 94%
    11:00 +9°C° 1.2 mm 3 mps 737 mmHg 94%
    12:00 +9°C° 2.3 mm 3 mps 736 mmHg 94%
    13:00 +8°C° 2.3 mm 3 mps 735 mmHg 95%
    14:00 +8°C° 2.3 mm 3 mps 734 mmHg 96%
    15:00 +7°C° 2.3 mm 4 mps 734 mmHg 95%
    16:00 +7°C° 2.3 mm 4 mps 733 mmHg 95%
    17:00 +6°C° 2.3 mm 4 mps 732 mmHg 95%
    18:00 +6°C° 2 mm 5 mps 732 mmHg 95%
    19:00 +5°C° 2 mm 6 mps 731 mmHg 94%
    20:00 +5°C° 2 mm 6 mps 731 mmHg 93%
    21:00 +5°C° 1.4 mm 7 mps 732 mmHg 92%
    22:00 +5°C° 1.4 mm 7 mps 732 mmHg 92%
    23:00 +5°C° 1.4 mm 7 mps 732 mmHg 91%

    Day after tomorrow, 25 September, Tuesday

    Time Temperature Precipitation Wind Pressure Humidity
    00:00 +5°C° 0.6 mm 7 mps 733 mmHg 90%
    01:00 +5°C° 0.6 mm 7 mps 734 mmHg 89%
    02:00 +5°C° 0.6 mm 7 mps 734 mmHg 89%
    03:00 +5°C° 0.1 mm 7 mps 735 mmHg 89%
    04:00 +4°C° 0.1 mm 7 mps 736 mmHg 88%
    05:00 +4°C° 0.1 mm 6 mps 737 mmHg 88%
    06:00 +4°C° 0 mm 6 mps 738 mmHg 86%
    07:00 +4°C° 0 mm 6 mps 739 mmHg 84%
    08:00 +4°C° 0 mm 6 mps 739 mmHg 83%
    09:00 +4°C° 0 mm 6 mps 740 mmHg 79%
    10:00 +5°C° 0 mm 6 mps 741 mmHg 76%
    11:00 +5°C° 0 mm 6 mps 742 mmHg 72%
    12:00 +7°C° 0 mm 6 mps 742 mmHg 68%
    13:00 +7°C° 0 mm 6 mps 743 mmHg 64%
    14:00 +8°C° 0 mm 6 mps 744 mmHg 61%
    15:00 +7°C° 0.1 mm 5 mps 744 mmHg 64%
    16:00 +7°C° 0.1 mm 5 mps 745 mmHg 66%
    17:00 +6°C° 0.1 mm 5 mps 745 mmHg 69%
    18:00 +5°C° 0 mm 4 mps 746 mmHg 72%
    19:00 +4°C° 0 mm 4 mps 747 mmHg 74%
    20:00 +3°C° 0 mm 4 mps 748 mmHg 76%
    21:00 +3°C° 0 mm 4 mps 748 mmHg 75%
    22:00 +3°C° 0 mm 4 mps 749 mmHg 73%
    23:00 +1°C° 0 mm 4 mps 749 mmHg 72%

    26 September, Wednesday

    Time Temperature Precipitation Wind Pressure Humidity
    00:00 +2°C° 0 mm 3 mps 750 mmHg 75%
    01:00 +2°C° 0 mm 3 mps 751 mmHg 77%
    02:00 +1°C° 0 mm 3 mps 751 mmHg 79%
    03:00 +1°C° 0 mm 3 mps 751 mmHg 83%
    04:00 +1°C° 0 mm 3 mps 752 mmHg 86%
    05:00 +1°C° 0 mm 3 mps 752 mmHg 89%
    06:00 +2°C° 0 mm 3 mps 753 mmHg 85%
    07:00 +3°C° 0 mm 3 mps 753 mmHg 80%
    08:00 +4°C° 0 mm 3 mps 753 mmHg 75%
    09:00 +6°C° 0 mm 4 mps 753 mmHg 68%
    10:00 +7°C° 0 mm 4 mps 753 mmHg 61%
    11:00 +10°C° 0 mm 4 mps 753 mmHg 55%
    12:00 +10°C° 0 mm 4 mps 752 mmHg 54%
    13:00 +10°C° 0 mm 5 mps 752 mmHg 53%
    14:00 +10°C° 0 mm 5 mps 751 mmHg 52%
    15:00 +10°C° 0 mm 5 mps 751 mmHg 58%
    16:00 +9°C° 0 mm 5 mps 750 mmHg 64%
    17:00 +8°C° 0 mm 5 mps 749 mmHg 71%
    18:00 +8°C° 0.3 mm 5 mps 749 mmHg 76%
    19:00 +7°C° 0.3 mm 6 mps 748 mmHg 81%
    20:00 +7°C° 0.3 mm 6 mps 747 mmHg 86%
    21:00 +5°C° 1.3 mm 7 mps 746 mmHg 88%
    22:00 +5°C° 1.3 mm 7 mps 745 mmHg 89%
    23:00 +5°C° 1.3 mm 7 mps 744 mmHg 90%

    27 September, Thursday

    Time Temperature Precipitation Wind Pressure Humidity
    00:00 +5°C° 1.8 mm 7 mps 743 mmHg 91%
    01:00 +5°C° 1.8 mm 7 mps 742 mmHg 91%
    02:00 +5°C° 1.8 mm 7 mps 741 mmHg 91%
    03:00 +6°C° 1.5 mm 7 mps 740 mmHg 92%
    04:00 +7°C° 1.5 mm 6 mps 740 mmHg 92%
    05:00 +7°C° 1.5 mm 6 mps 739 mmHg 93%
    06:00 +8°C° 1 mm 5 mps 739 mmHg 93%
    07:00 +8°C° 1 mm 5 mps 739 mmHg 94%
    08:00 +10°C° 1 mm 4 mps 739 mmHg 94%
    09:00 +11°C° 0.1 mm 4 mps 739 mmHg 88%
    10:00 +12°C° 0.1 mm 4 mps 740 mmHg 82%
    11:00 +13°C° 0.1 mm 5 mps 740 mmHg 75%
    12:00 +13°C° 0.1 mm 5 mps 741 mmHg 70%
    13:00 +13°C° 0.1 mm 5 mps 741 mmHg 66%
    14:00 +14°C° 0.1 mm 5 mps 741 mmHg 61%
    15:00 +13°C° 0 mm 4 mps 741 mmHg 66%
    16:00 +12°C° 0 mm 3 mps 741 mmHg 70%
    17:00 +12°C° 0 mm 2 mps 741 mmHg 75%
    18:00 +12°C° 0.2 mm 2 mps 742 mmHg 80%
    19:00 +10°C° 0.2 mm 2 mps 742 mmHg 85%
    20:00 +10°C° 0.2 mm 2 mps 742 mmHg 89%
    21:00 +10°C° 0.4 mm 2 mps 742 mmHg 92%
    22:00 +10°C° 0.4 mm 2 mps 742 mmHg 94%
    23:00 +10°C° 0.4 mm 2 mps 742 mmHg 96%

    28 September, Friday

    Time Temperature Precipitation Wind Pressure Humidity
    00:00 +10°C° 0.1 mm 2 mps 741 mmHg 95%
    01:00 +10°C° 0.1 mm 2 mps 741 mmHg 95%
    02:00 +9°C° 0.1 mm 3 mps 741 mmHg 95%
    03:00 +10°C° 0.7 mm 3 mps 740 mmHg 95%
    04:00 +10°C° 0.7 mm 4 mps 740 mmHg 95%
    05:00 +9°C° 0.7 mm 5 mps 739 mmHg 94%
    06:00 +10°C° 1 mm 6 mps 738 mmHg 92%
    07:00 +11°C° 1 mm 7 mps 737 mmHg 91%
    08:00 +12°C° 1 mm 7 mps 736 mmHg 89%
    09:00 +12°C° 1.4 mm 7 mps 736 mmHg 89%
    10:00 +12°C° 1.4 mm 7 mps 736 mmHg 88%
    11:00 +12°C° 1.4 mm 7 mps 737 mmHg 88%
    12:00 +11°C° 0.2 mm 7 mps 737 mmHg 86%
    13:00 +10°C° 0.2 mm 6 mps 738 mmHg 84%
    14:00 +8°C° 0.2 mm 6 mps 739 mmHg 82%
    15:00 +8°C° 0 mm 5 mps 740 mmHg 83%
    16:00 +8°C° 0 mm 4 mps 742 mmHg 83%
    17:00 +8°C° 0 mm 3 mps 743 mmHg 83%
    18:00 +7°C° 0 mm 2 mps 743 mmHg 87%
    19:00 +7°C° 0 mm 2 mps 744 mmHg 91%
    20:00 +7°C° 0 mm 1 mps 744 mmHg 95%
    21:00 +6°C° 0 mm 2 mps 745 mmHg 94%
    22:00 +5°C° 0 mm 2 mps 745 mmHg 94%
    23:00 +4°C° 0 mm 3 mps 746 mmHg 93%
    Show more